sat.trackr.live / text

‹ back to catalog

STARLINK-1433

NORAD 45711 · 2020-035BG

PAYLOAD ACTIVE UNKNOWN

§ Identity

Operator
Country
US
Launch date
2020-06-04
Launch site
AFETR
Launch vehicle
Mass (kg)
RCS (m²)

Purposes: comms

External: N2YO · Heavens-Above · Gunter

§ Orbital elements

Epoch: 2026-09-20T06:00:02.000160Z

Period
90.06 min
Inclination
53.0328°
Eccentricity
0.0000801
Mean motion
15.98927844 rev/d
Perigee alt
276.9 km
Apogee alt
277.9 km
Semi-major
6,655.5 km
B*
2.1159e-3
RAAN
134.3234°
Arg perigee
106.4448°
Mean anomaly
158.0534°
Rev number
603

§ Raw data

STARLINK-14331 45711U 20035BG  26263.25002315  .01036016  53085-3  21159-2 0  99962 45711  53.0328 134.3234 0000801 106.4448 158.0534 15.98927844  6039

JSON: /api/v1/satellites/45711 · /tle

For live sub-satellite position, see the globe view (requires WebGL).

§ Visibility from observer

Set your observer location to see the next 7 days of passes ≥ 10°. The values pass through the URL so the page stays shareable.

No JS? Fill the form by hand. The geolocation button needs JavaScript.